Meteo Giornale » Osservazioni meteo Italia » Venezia-Tessera

ore: 21:20 - Osservazioni Meteo Venezia-Tessera
Lat. 45° 30' N Lon. 12° 20' E Alt. 2 metri s.l.m.

sereno

27 °C

Sereno

Temp. 24 Ore

20 °C

30 °C

Sud

9.3 Km/h

Dew point 21 °C

Umidità 69 %

Visibilità  10 Km

Il sole sorge alle ore 06:30

Il sole tramonta alle ore 19:51

Data e Ora Cielo e Fenomeni T °C DP °C Um. % Pres. hPa Vis. km Vento km/h
Oggi h: 21:20 sereno Sereno 27 21 69 1012 10 S 9.3
Oggi h: 20:50 sereno Sereno 27 21 69 1012 10 S 9.3
Oggi h: 20:20 sereno Sereno 27 22 74 1012 10 S 9.3
Oggi h: 19:50 sereno Sereno 27 22 74 1012 10 S 7.4
Oggi h: 19:20 sereno Sereno 28 22 69 1012 10 S/SE 11.1
Oggi h: 18:50 sereno Sereno 28 22 69 1012 10 S/SE 13
Oggi h: 18:20 sereno Sereno 29 21 62 1012 10 S/SE 14.8
Oggi h: 17:50 poco_nuvoloso Poco Nuvoloso 29 21 62 1013 10 S/SE 13
Oggi h: 17:20 poco_nuvoloso Poco Nuvoloso 29 21 62 1013 10 S/SE 13
Oggi h: 16:50 poco_nuvoloso Poco Nuvoloso 30 21 58 1013 10 S/SE 11.1
Oggi h: 16:20 poco_nuvoloso Poco Nuvoloso 30 20 55 1013 10 SE 11.1
Oggi h: 15:50 sereno Sereno 30 21 58 1013 10 S/SE 11.1
Oggi h: 15:20 poco_nuvoloso Poco Nuvoloso 30 21 58 1013 10 SE 13
Oggi h: 14:50 sereno Sereno 29 21 62 1014 10 SE 11.1
Oggi h: 14:20 sereno Sereno 29 20 58 1014 10 SE 11.1
Oggi h: 11:50 sereno Sereno 28 19 58 1014 10 SE 9.3
Oggi h: 11:20 sereno Sereno 27 17 54 1014 10 SE 9.3
Oggi h: 09:20 sereno Sereno 24 17 64 1014 10 E/NE 9.3
Oggi h: 08:50 sereno Sereno 24 17 64 1014 10 NE 7.4
Oggi h: 08:20 sereno Sereno 23 17 68 1014 10 NE 9.3
Oggi h: 07:50 sereno Sereno 22 17 73 1014 10 NE 7.4
Oggi h: 07:20 sereno Sereno 21 17 77 1013 10 N 5.5
Oggi h: 06:50 sereno Sereno 20 18 88 1013 10 N 3.7
Oggi h: 06:20 sereno Sereno 21 18 82 1013 10 N 7.4
Oggi h: 05:50 sereno Sereno 21 18 82 1013 10 N 7.4
Oggi h: 05:20 sereno Sereno 21 19 88 1014 10 N/NO 7.4
Oggi h: 04:50 sereno Sereno 21 19 88 1013 10 N 5.5
Oggi h: 04:20 sereno Sereno 22 19 83 1013 10 N 7.4
Oggi h: 03:50 sereno Sereno 22 19 83 1013 10 N 3.7
Oggi h: 03:20 sereno Sereno 23 20 83 1014 10 N 5.5
Oggi h: 02:50 sereno Sereno 23 20 83 1014 10 O 7.4
Oggi h: 02:20 sereno Sereno 23 20 83 1014 10 N 5.5
Oggi h: 01:50 sereno Sereno 24 20 78 1014 10 O 7.4
Oggi h: 01:20 sereno Sereno 22 20 88 1014 10 NO 7.4
Oggi h: 00:50 sereno Sereno 23 20 83 1014 10 N 5.5
Oggi h: 00:20 sereno Sereno 23 20 83 1014 10 NO 7.4
Ieri h: 23:50 sereno Sereno 24 21 83 1014 10 N 3.7
Ieri h: 23:20 sereno Sereno 25 21 78 1014 10 N 5.5
Ieri h: 22:50 sereno Sereno 25 21 78 1014 10 N 5.5